Shelbyville, IN

4:58 PM EDT on October 22, 2017 (GMT -0400)
Shelbyville Municipal

Weather History for KGEZ - October, 2010

Change the Weather History Date:

Friday, October 1, 2010

  Actual Average Record
Temperature  
Mean Temperature 57 °F 59 °F  
Max Temperature 73 °F 72 °F 82 °F (2002)
Min Temperature 41 °F 47 °F 35 °F (2003)
Degree Days  
Heating Degree Days 8 7  
Month to date heating degree days 8 7  
Since 1 July heating degree days 53 92  
Cooling Degree Days 0 1  
Month to date cooling degree days 0 1  
Year to date cooling degree days 1321 900  
Growing Degree Days 6 (Base 50)    
Moisture  
Dew Point 39 °F    
Average Humidity 60    
Maximum Humidity 93    
Minimum Humidity 27    
Precipitation  
Precipitation 0.00 in 0.12 in 0.42 in (2012)
Month to date precipitation 0.00 0.12  
Year to date precipitation 32.71 33.57  
Sea Level Pressure  
Sea Level Pressure 30.03 in    
Wind  
Wind Speed 8 mph (North)    
Max Wind Speed 18 mph    
Max Gust Speed 24 mph    
Visibility 10 miles    
Events      
T = Trace of Precipitation, MM = Missing Value Source: NWS Daily Summary

Daily Weather History Graph

Daily Weather History Graph

Search for Another Location

Airport or City:

Trip Planner

Search our weather history database for the weather conditions in past years. The results will help you decide how hot, cold, wet, or windy it might be!

Date:

Astronomy

Oct. 01, 2010 Rise Set
Actual Time 7:39 AM EDT 7:25 PM EDT
Civil Twilight 7:12 AM EDT 7:52 PM EDT
Nautical Twilight 6:41 AM EDT 8:23 PM EDT
Astronomical Twilight 6:09 AM EDT 8:55 PM EDT
Moon 12:17 AM EDT (10/1) 3:29 PM EDT (10/1)
Length of Visible Light 12h 40m
Length of Day
11h 46m
Last Quarter, 44% of the Moon is Illuminated
Oct 1
Last Quarter
Oct 7
New
Oct 14
First Quarter
Oct 22
Full
Oct 30
Last Quarter

Hourly Weather History & Observations

Time (EDT) Temp. Windchill Dew Point Humidity Pressure Visibility Wind Dir Wind Speed Gust Speed Precip Events Conditions
12:53 AM 55.9 °F - 43.0 °F 62% 29.97 in 10.0 mi North 9.2 mph - N/A   Clear
1:53 AM 54.0 °F - 43.0 °F 66% 29.98 in 10.0 mi North 10.4 mph - N/A   Clear
2:53 AM 53.1 °F - 43.0 °F 69% 29.99 in 10.0 mi North 9.2 mph - N/A   Clear
3:53 AM 53.1 °F - 43.0 °F 69% 30.00 in 10.0 mi North 9.2 mph - N/A   Clear
4:53 AM 53.1 °F - 43.0 °F 69% 30.02 in 10.0 mi North 8.1 mph - N/A   Clear
5:53 AM 50.0 °F - 42.1 °F 74% 30.03 in 10.0 mi North 4.6 mph - N/A   Clear
6:53 AM 44.1 °F 39.5 °F 39.9 °F 85% 30.05 in 10.0 mi North 8.1 mph - N/A   Clear
7:53 AM 41.0 °F 36.4 °F 39.0 °F 93% 30.07 in 10.0 mi North 6.9 mph - N/A   Clear
8:53 AM 48.9 °F - 43.0 °F 80% 30.09 in 10.0 mi North 8.1 mph - N/A   Clear
9:53 AM 57.0 °F - 42.1 °F 57% 30.10 in 10.0 mi NNE 8.1 mph - N/A   Clear
10:53 AM 61.0 °F - 39.9 °F 46% 30.10 in 10.0 mi NNE 12.7 mph - N/A   Clear
11:53 AM 64.9 °F - 37.9 °F 37% 30.09 in 10.0 mi NNE 17.3 mph 20.7 mph N/A   Clear
12:53 PM 68.0 °F - 37.0 °F 32% 30.07 in 10.0 mi North 9.2 mph - N/A   Clear
1:53 PM 69.1 °F - 35.1 °F 29% 30.06 in 10.0 mi North 13.8 mph - N/A   Clear
2:53 PM 71.1 °F - 35.1 °F 27% 30.03 in 10.0 mi North 9.2 mph - N/A   Clear
3:53 PM 72.0 °F - 35.1 °F 26% 30.01 in 10.0 mi NNE 13.8 mph 17.3 mph N/A   Clear
4:53 PM 72.0 °F - 35.1 °F 26% 30.00 in 10.0 mi NNE 6.9 mph - N/A   Clear
5:53 PM 71.1 °F - 35.1 °F 27% 30.01 in 10.0 mi North 5.8 mph - N/A   Clear
6:53 PM 68.0 °F - 37.0 °F 32% 30.01 in 10.0 mi North 9.2 mph - N/A   Clear
7:53 PM 60.1 °F - 37.0 °F 42% 30.02 in 10.0 mi North 4.6 mph - N/A   Clear
8:53 PM 55.9 °F - 37.0 °F 49% 30.03 in 10.0 mi Calm Calm - N/A   Clear
9:53 PM 51.1 °F - 37.9 °F 61% 30.03 in 10.0 mi Calm Calm - N/A   Clear
10:53 PM 46.9 °F - 39.0 °F 74% 30.02 in 10.0 mi Calm Calm - N/A   Clear
11:53 PM 45.0 °F 43.5 °F 39.0 °F 80% 30.01 in 10.0 mi East 3.5 mph - N/A   Clear